Tirstrup, Denmark

2:06 PM CEST on September 22, 2017 (GMT +0200)
Aarhus

Weather History for EKAH - March, 2013

Change the Weather History Date:

Sunday, March 10, 2013

  Actual Average Record
Temperature  
Mean Temperature 26 °F -  
Max Temperature 28 °F 44 °F 58 °F (2014)
Min Temperature 24 °F 31 °F 19 °F (1998)
Degree Days  
Heating Degree Days 39    
Moisture  
Dew Point 12 °F    
Average Humidity 53    
Maximum Humidity 80    
Minimum Humidity 31    
Precipitation  
Precipitation 0.00 in - - ()
Sea Level Pressure  
Sea Level Pressure 29.97 in    
Wind  
Wind Speed 21 mph ()    
Max Wind Speed 30 mph    
Max Gust Speed 45 mph    
Visibility 6.2 miles    
Events Rain , Snow    
Averages and records for this station are not official NWS values.
T = Trace of Precipitation, MM = Missing Value Source: Averaged Metar Reports

Daily Weather History Graph

Daily Weather History Graph

Search for Another Location

Airport or City:

Trip Planner

Search our weather history database for the weather conditions in past years. The results will help you decide how hot, cold, wet, or windy it might be!

Date:

Astronomy

Mar. 10, 2013 Rise Set
Actual Time 6:46 AM CET 6:10 PM CET
Civil Twilight 6:08 AM CET 6:47 PM CET
Nautical Twilight 5:25 AM CET 7:31 PM CET
Astronomical Twilight 4:40 AM CET 8:16 PM CET
Moon 5:46 AM CET (3/10) 4:54 PM CET (3/10)
Length of Visible Light 12h 39m
Length of Day
11h 24m
Waning Crescent, 2% of the Moon is Illuminated
Mar 10
Waning Crescent
Mar 11
New
Mar 19
First Quarter
Mar 27
Full
Apr 3
Last Quarter

Hourly Weather History & Observations

Time (CET) Temp. Windchill Dew Point Humidity Pressure Visibility Wind Dir Wind Speed Gust Speed Precip Events Conditions
12:20 AM 28.4 °F 14.4 °F 14.0 °F 55% 29.95 in 6.2 mi ENE 23.0 mph - N/A Snow Light Snow Showers
12:50 AM 28.4 °F 14.4 °F 14.0 °F 55% 29.95 in 6.2 mi East 23.0 mph - N/A Snow Light Snow Showers
1:00 AM 28 °F - 13 °F 40% 29.97 in 22 mi Calm Calm - - Snow Light Snow Showers
1:20 AM 28.4 °F 14.7 °F 12.2 °F 51% 29.95 in 6.2 mi ENE 21.9 mph - N/A   Mostly Cloudy
1:50 AM 28.4 °F 14.4 °F 12.2 °F 51% 29.95 in 6.2 mi East 23.0 mph 35.7 mph N/A   Overcast
2:20 AM 26.6 °F 13.1 °F 12.2 °F 55% 29.95 in 6.2 mi ENE 19.6 mph - N/A   Mostly Cloudy
2:50 AM 26.6 °F 12.0 °F 12.2 °F 55% 29.95 in 6.2 mi East 23.0 mph 34.5 mph N/A Snow Light Snow
3:20 AM 26.6 °F 11.7 °F 12.2 °F 55% 29.95 in 6.2 mi ENE 24.2 mph - N/A   Mostly Cloudy
3:50 AM 26.6 °F 11.4 °F 12.2 °F 55% 29.95 in 6.2 mi ENE 25.3 mph - N/A   Mostly Cloudy
4:00 AM 27 °F - 13 °F 41% 29.96 in 31 mi Calm Calm - -   Clear
4:20 AM 26.6 °F 10.6 °F 12.2 °F 55% 29.95 in 6.2 mi East 28.8 mph - N/A   Mostly Cloudy
4:50 AM 26.6 °F 10.8 °F 12.2 °F 55% 29.95 in 6.2 mi ENE 27.6 mph 40.3 mph N/A   Mostly Cloudy
5:20 AM 26.6 °F 11.4 °F 12.2 °F 55% 29.95 in 6.2 mi ENE 25.3 mph 36.8 mph N/A   Overcast
5:50 AM 26.6 °F 11.7 °F 12.2 °F 55% 29.95 in 6.2 mi ENE 24.2 mph 35.7 mph N/A   Overcast
6:20 AM 26.6 °F 11.4 °F 12.2 °F 55% 29.95 in 6.2 mi ENE 25.3 mph 36.8 mph N/A   Mostly Cloudy
6:50 AM 26.6 °F 11.7 °F 14.0 °F 59% 29.95 in 6.2 mi ENE 24.2 mph 36.8 mph N/A   Mostly Cloudy
7:00 AM 26 °F - 13 °F 44% 29.96 in 31 mi Calm Calm - -  
7:20 AM 26.6 °F 11.7 °F 14.0 °F 59% 29.95 in 6.2 mi ENE 24.2 mph 36.8 mph N/A   Mostly Cloudy
7:50 AM 26.6 °F 11.7 °F 12.2 °F 55% 29.95 in 6.2 mi ENE 24.2 mph 36.8 mph N/A   Mostly Cloudy
8:20 AM 26.6 °F 11.1 °F 12.2 °F 55% 29.98 in 6.2 mi ENE 26.5 mph 38.0 mph N/A   Mostly Cloudy
8:50 AM 26.6 °F 10.8 °F 12.2 °F 55% 29.98 in 6.2 mi ENE 27.6 mph - N/A   Mostly Cloudy
9:20 AM 26.6 °F 10.8 °F 12.2 °F 55% 29.98 in 6.2 mi ENE 27.6 mph 39.1 mph N/A   Mostly Cloudy
9:50 AM 26.6 °F 11.1 °F 12.2 °F 55% 29.98 in 6.2 mi ENE 26.5 mph 40.3 mph N/A   Mostly Cloudy
10:00 AM 27 °F - 12 °F 38% 29.98 in 31 mi Calm Calm - -  
10:20 AM 26.6 °F 10.8 °F 10.4 °F 51% 29.98 in 6.2 mi ENE 27.6 mph 41.4 mph N/A   Mostly Cloudy
10:50 AM 26.6 °F 10.3 °F 10.4 °F 51% 29.98 in 6.2 mi ENE 29.9 mph 44.9 mph N/A   Mostly Cloudy
11:20 AM 26.6 °F 11.4 °F 8.6 °F 47% 29.98 in 6.2 mi ENE 25.3 mph 36.8 mph N/A   Mostly Cloudy
11:50 AM 28.4 °F 13.5 °F 8.6 °F 43% 29.98 in 6.2 mi ENE 26.5 mph 38.0 mph N/A   Mostly Cloudy
12:20 PM 28.4 °F 13.8 °F 10.4 °F 47% 29.98 in 6.2 mi ENE 25.3 mph - N/A   Mostly Cloudy
12:50 PM 28.4 °F 14.1 °F 10.4 °F 47% 29.98 in 6.2 mi ENE 24.2 mph - N/A   Mostly Cloudy
1:00 PM 28 °F - 11 °F 35% 29.99 in 25 mi Calm Calm - -  
1:20 PM 26.6 °F 12.4 °F 12.2 °F 55% 29.98 in 6.2 mi East 21.9 mph - N/A Snow Light Snow Showers
1:50 PM 26.6 °F 13.1 °F 12.2 °F 55% 29.98 in 6.2 mi ENE 19.6 mph - N/A Snow Light Snow Showers
2:20 PM 28.4 °F 14.1 °F 10.4 °F 47% 29.98 in 6.2 mi ENE 24.2 mph - N/A   Mostly Cloudy
2:50 PM 28.4 °F 15.1 °F 12.2 °F 51% 29.98 in 6.2 mi ENE 20.7 mph 33.4 mph N/A Snow Light Snow Showers
3:20 PM 28.4 °F 14.4 °F 17.6 °F 64% 29.98 in 6.2 mi ENE 23.0 mph 36.8 mph N/A   Mostly Cloudy
3:50 PM 28.4 °F 14.7 °F 10.4 °F 47% 29.95 in 6.2 mi ENE 21.9 mph - N/A Snow Light Snow Showers
4:00 PM 29 °F - 10 °F 31% 29.98 in 28 mi Calm Calm - - Rain Light Freezing Rain
4:20 PM 28.4 °F 14.1 °F 12.2 °F 51% 29.98 in 6.2 mi ENE 24.2 mph 35.7 mph N/A Snow Light Snow Showers
4:50 PM 26.6 °F 13.1 °F 17.6 °F 69% 29.98 in 6.2 mi NE 19.6 mph - N/A   Mostly Cloudy
5:20 PM 26.6 °F 13.1 °F 15.8 °F 64% 29.98 in 6.2 mi ENE 19.6 mph 31.1 mph N/A Snow Light Snow Showers
5:50 PM 26.6 °F 14.3 °F 12.2 °F 55% 29.98 in 6.2 mi ENE 16.1 mph - N/A   Mostly Cloudy
6:20 PM 26.6 °F 13.4 °F 12.2 °F 55% 29.98 in 6.2 mi ENE 18.4 mph - N/A Snow Light Snow Showers
6:50 PM 26.6 °F 13.1 °F 14.0 °F 59% 29.98 in 6.2 mi ENE 19.6 mph - N/A Snow Light Snow Showers
7:00 PM 27 °F - 13 °F 43% 30.00 in 12 mi Calm Calm - - Rain Light Freezing Rain
7:20 PM 24.8 °F 9.6 °F 19.4 °F 80% 30.01 in 0.7 mi East 23.0 mph - N/A Snow Light Snow Showers
7:50 PM 26.6 °F 16.2 °F 15.8 °F 64% 29.98 in 6.2 mi East 11.5 mph - N/A Snow Light Snow Showers
8:20 PM 26.6 °F 14.7 °F 14.0 °F 59% 29.98 in 6.2 mi NE 15.0 mph - N/A   Mostly Cloudy
8:50 PM 26.6 °F 13.1 °F 14.0 °F 59% 29.98 in 6.2 mi ENE 19.6 mph - N/A Snow Light Snow Showers
9:20 PM 26.6 °F 13.1 °F 14.0 °F 59% 30.01 in 6.2 mi ENE 19.6 mph - N/A   Mostly Cloudy
10:00 PM - - - %  in - Calm Calm - -  
11:20 PM 24.8 °F 11.5 °F 8.6 °F 50% 30.01 in 6.2 mi ENE 17.3 mph - N/A   Mostly Cloudy
11:50 PM 24.8 °F 11.5 °F 8.6 °F 50% 30.01 in 6.2 mi East 17.3 mph - N/A   Mostly Cloudy